FENGYUN 1C DEB

Satellite information

Favourite Embed

Satellite Type and Status

DEBRISIN ORBIT

Key statistics

Satellite FENGYUN 1C DEB at a glance.

Uptime

9495

Days in orbit

Revolutions

≈ 14.2

Per day

Orbit

SSO

Sun Synchronous Orbit

Inclination

98.8

Latest

Satellite identification and parameters

Extended collection of information and parameters for FENGYUN 1C DEB.

Object identification

Identified? True

Debris? True

Object name: FENGYUN 1C DEB

International designator: 1999-025ALC

Object number (NORAD): 30562

Object ID (CCSDS): 30562

Country: PEOPLES REPUBLIC OF CHINA (PRC)

Current information (Y/N): Y

RCS size: SMALL

Orbital parameters

Period: 101.301 minutes

Inclination: 98.7734 deg

SMA: 7198.418 km

Apoapsis: 865.272 km

Periapsis: 775.294 km

RAAN: 196.6822 deg

Eccentricy: 0.0062498

Argument of periapsis: 177.107 deg

Mean anomaly: 305.1581 deg

Mean motion: 14.21501007 rev/day

Mean motion (dot): 0.00003393 rev/day2

B* drag term: 0.0015391 1/REarth

Two-line elements (TLE)

Creation date: May 8, 2025, 3:01 a.m.

Reference frame: TEME

Reference center: EARTH

Epoch: May 7, 2025, 6:32 p.m. UTC

TLE line 0: 0 FENGYUN 1C DEB

TLE line 1: 1 30562U 99025ALC 25127.77248980 .00003393 00000-0 15391-2 0 9992

TLE line 2: 2 30562 98.7734 196.6822 0062498 177.1070 305.1581 14.21501007938871

Live tracking on map

Real-time ground track for satellite FENGYUN 1C DEB.

In-orbit conjunctions

A list of the most updated potential collisions computed for object FENGYUN 1C DEB.

Target Orbit TCA Probability of collision Miss distance Type
CZ-6A DEB LEO 2025-03-05 08:57:37 0.000121787 856.0 (m) DEBRIS
METEOR 1-14 LEO 2024-10-30 01:29:01 0.000132915 210.0 (m) PAYLOAD
METEOR 2-5 DEB LEO 2024-07-20 06:47:07 0.0001326428 44.0 (m) DEBRIS

Associated space launch

Chinese polar orbiting meteorological satellite

FENGYUN 1C DEB was lifted into orbit during the mission ‘Long March 4B | Feng Yun 1C’, on board a Long March 4B space rocket.

The launch took place on May 10, 1999, 1:33 a.m. from Launch Complex 7.

For more information about the launch, click the button.

Launch to space Long March 4B | Feng Yun 1C
Long March 4B | Feng Yun 1C

Agency: N/A

Status: Launch Successful

Launch date: May 10, 1999, 1:33 a.m. UTC

Rocket: Long March 4B

Launch pad: Launch Complex 7

Location: Taiyuan Satellite Launch Center, People's Republic of China

...

Latest news about this satellite

There are no fresh news available about this satellite. Check back as we update our databases every day.


Newsletter sign-up

Weekly statistics, charts and insights to help you stay on top of the space industry.